Time[GMT],air_temperature[C](-3m),wind_speed[m/s](-4m),wind_gust[m/s](-4m),visibility[m](-3m),wind_direction[degrees_true](-4m)
2001-07-09 13:00,,,,,
2001-07-09 14:00,,,,,
2001-07-09 15:00,,,,,
2001-07-09 16:00,,,,,
2001-07-09 17:00,,,,,
2001-07-09 18:00,20.9,0.6,0.6,,81.49
2001-07-09 19:00,19.4,0.8,0.8,,99.59
2001-07-09 20:00,19.2,1.6,1.6,,100.49
2001-07-09 21:00,16.0,2.5,2.5, 833,132.09
2001-07-09 22:00,16.2,1.0,1.0,2956,100.19
2001-07-09 23:00,15.9,0.6,0.6,2071,254.69
2001-07-10 00:00,15.8,2.9,2.9,1846,15.38
2001-07-10 01:00,15.1,1.2,1.2,1603,353.80
2001-07-10 02:00,15.0,4.1,4.1,1920,55.09
2001-07-10 03:00,14.4,2.4,2.4,2087,338.59
2001-07-10 04:00,15.9,3.7,3.7,1895,69.59
2001-07-10 05:00,14.3,4.5,4.5,1275,27.87
2001-07-10 06:00,14.3,5.3,5.3,1567,2.20
2001-07-10 07:00,14.9,2.9,2.9, 513,77.89
2001-07-10 08:00,15.1,3.7,3.7, 276,86.29
2001-07-10 09:00,14.1,2.2,2.2, 361,3.72
2001-07-10 10:00,14.9,0.8,0.8, 452,291.79
2001-07-10 11:00,13.7,1.4,1.4, 203,317.69
2001-07-10 12:00,14.1,1.8,1.8, 437,9.00
2001-07-10 13:00,14.5,1.8,1.8, 367,56.09
2001-07-10 14:00,14.6,0.4,0.4, 332,310.59
2001-07-10 15:00,15.3,1.8,1.8, 414,96.19
2001-07-10 16:00,15.8,2.4,2.4, 446,98.19
2001-07-10 17:00,15.5,2.9,2.9,1577,108.49
2001-07-10 18:00,16.2,2.7,2.7,1463,103.09
2001-07-10 19:00,16.4,3.3,3.3,1340,133.89
2001-07-10 20:00,16.6,3.1,3.1,1658,258.59
2001-07-10 21:00,16.0,2.5,2.5,1860,353.07
2001-07-10 22:00,16.1,3.7,3.7,1961,71.59
2001-07-10 23:00,15.7,6.1,6.1,1736,327.89
2001-07-11 00:00,15.5,4.1,4.1,1658,79.89
2001-07-11 01:00,14.8,2.0,2.0,1334,64.29
2001-07-11 02:00,15.8,2.5,2.5,2102,68.89
2001-07-11 03:00,15.6,3.1,3.1,1872,90.09
2001-07-11 04:00,15.9,2.0,2.0,2563,314.09
2001-07-11 05:00,15.0,2.4,2.4,2707,302.49
2001-07-11 06:00,14.9,2.2,2.2,2956,317.99
2001-07-11 07:00,14.9,1.4,1.4,1322,332.59
2001-07-11 08:00,14.5,1.0,1.0,1972,333.99
2001-07-11 09:00,14.9,1.2,1.2, 416,45.50
2001-07-11 10:00,14.7,0.6,0.6,1791,248.89
2001-07-11 11:00,14.9,0.4,0.4, 314,10.16
2001-07-11 12:00,14.3,1.4,1.4, 273,194.09
2001-07-11 13:00,14.4,2.0,2.0, 399,124.29
2001-07-11 14:00,14.3,1.6,1.6, 508,284.99
2001-07-11 15:00,14.5,1.8,1.8, 622,147.89
2001-07-11 16:00,14.9,4.9,4.9, 416,119.39
2001-07-11 17:00,15.1,2.0,2.0,1275,80.59
2001-07-11 18:00,16.0,0.2,0.2,1147,270.09
2001-07-11 19:00,15.7,2.4,2.4, 449,162.59
2001-07-11 20:00,15.1,5.5,5.5,2302,155.99
2001-07-11 21:00,14.8,3.7,3.7,2002,154.49
2001-07-11 22:00,15.4,1.2,1.2, 344,264.79
2001-07-11 23:00,14.9,1.8,1.8, 176,284.89
2001-07-12 00:00,15.1,3.7,3.7,2248,158.39
2001-07-12 01:00,15.2,2.7,2.7,1208,173.49
2001-07-12 02:00,15.3,4.3,4.3, 567,213.39
2001-07-12 03:00,14.7,3.7,3.7,2925,242.29
2001-07-12 04:00,15.1,4.5,4.5,2956,253.29
2001-07-12 05:00,15.2,5.5,5.5,2956,258.79
2001-07-12 06:00,15.1,6.9,6.9,2956,249.89
2001-07-12 07:00,15.0,6.1,6.1,2956,259.89
2001-07-12 08:00,14.4,4.1,4.1,2956,243.59
2001-07-12 09:00,14.4,6.9,6.9,2956,252.39
2001-07-12 10:00,14.3,5.9,5.9,2956,238.19
2001-07-12 11:00,14.3,5.5,5.5,2956,262.69
2001-07-12 12:00,14.4,3.9,3.9,2957,246.49
2001-07-12 13:00,14.8,3.3,3.3,2957,241.09
2001-07-12 14:00,15.8,3.9,3.9,2957,233.99
2001-07-12 15:00,15.7,4.7,4.7,2957,212.29
2001-07-12 16:00,16.0,4.3,4.3,2957,207.59
2001-07-12 17:00,15.5,0.6,0.6,2957,268.79
2001-07-12 18:00,16.0,3.3,3.3,2956,177.69
2001-07-12 19:00,14.9,6.7,6.7,1541,181.29
2001-07-12 20:00,15.3,10.2,10.2,2759,230.19
2001-07-12 21:00,15.9,2.5,2.5,2957,202.19
2001-07-12 22:00,16.2,6.9,6.9,2840,208.39
2001-07-12 23:00,16.7,5.5,5.5,2957,249.89
2001-07-13 00:00,16.0,3.7,3.7,2657,235.59
2001-07-13 01:00,16.2,5.3,5.3,2957,255.79
2001-07-13 02:00,15.6,5.7,5.7,2956,251.29
2001-07-13 03:00,15.4,6.5,6.5,2956,269.69
2001-07-13 04:00,15.0,7.4,7.4,2956,243.09
2001-07-13 05:00,15.0,6.7,6.7,2956,263.19
2001-07-13 06:00,14.9,5.1,5.1,2956,253.89
2001-07-13 07:00,14.5,5.3,5.3,2957,264.19
2001-07-13 08:00,14.5,5.1,5.1,2956,262.19
2001-07-13 09:00,14.2,7.6,7.6,2957,261.19
2001-07-13 10:00,14.3,7.1,7.1,2957,217.49
2001-07-13 11:00,14.3,4.3,4.3,2957,254.39
2001-07-13 12:00,14.3,4.3,4.3,2957,228.19
2001-07-13 13:00,14.5,4.7,4.7,2957,214.59
2001-07-13 14:00,15.2,4.5,4.5,2957,215.09
2001-07-13 15:00,15.4,4.7,4.7,2957,215.49
2001-07-13 16:00,15.4,3.5,3.5,2957,202.09
2001-07-13 17:00,16.1,3.7,3.7,2957,195.79
2001-07-13 18:00,16.4,3.1,3.1,2957,250.29
2001-07-13 19:00,16.5,3.3,3.3,2957,193.19
2001-07-13 20:00,16.9,3.3,3.3,2957,214.99
2001-07-13 21:00,17.6,3.7,3.7,2957,231.69
2001-07-13 22:00,17.8,3.1,3.1,2957,188.99
2001-07-13 23:00,17.0,4.1,4.1,2957,210.19
2001-07-14 00:00,17.2,5.1,5.1,2957,239.99
2001-07-14 01:00,17.0,2.7,2.7,2957,242.69
2001-07-14 02:00,16.3,2.0,2.0, 525,261.29
2001-07-14 03:00,16.3,1.4,1.4,2956,268.79
2001-07-14 04:00,15.8,1.6,1.6,2956,208.89
2001-07-14 05:00,15.6,2.2,2.2,2956,221.09
2001-07-14 06:00,15.5,2.7,2.7,2956,250.89
2001-07-14 07:00,15.3,2.4,2.4,2956,253.89
2001-07-14 08:00,15.0,1.4,1.4,2956,224.09
2001-07-14 09:00,14.9,2.2,2.2,2957,242.49
2001-07-14 10:00,14.9,1.6,1.6,2956,248.59
2001-07-14 11:00,15.5,0.4,0.4,2956,316.09
2001-07-14 12:00,15.8,0.2,0.2,2956,281.59
2001-07-14 13:00,16.8,,,2957,
2001-07-14 14:00,18.2,,,2957,
2001-07-14 15:00,18.4,1.8,1.8,2957,143.69
2001-07-14 16:00,17.3,2.2,2.2,2956,176.09
2001-07-14 17:00,16.7,2.4,2.4,2957,147.39
2001-07-14 18:00,16.9,3.1,3.1,2956,151.49
2001-07-14 19:00,16.7,4.3,4.3,2957,188.39
2001-07-14 20:00,16.4,5.1,5.1,2957,203.89
2001-07-14 21:00,16.3,4.7,4.7,2957,212.69
2001-07-14 22:00,16.9,2.0,2.0,2134,216.39
2001-07-14 23:00,16.2,2.7,2.7,2957,246.89
2001-07-15 00:00,16.5,1.6,1.6,2956,307.59
2001-07-15 01:00,16.9,1.2,1.2,2957,273.19
2001-07-15 02:00,16.5,1.0,1.0, 522,240.99
2001-07-15 03:00,15.9,1.0,1.0,2956,245.59
2001-07-15 04:00,15.6,1.2,1.2,2956,230.69
2001-07-15 05:00,15.5,1.4,1.4,2956,275.79
2001-07-15 06:00,15.8,2.9,2.9,2956,295.89
2001-07-15 07:00,15.4,2.4,2.4,2868,255.49
2001-07-15 08:00,14.9,1.4,1.4,2956,233.49
2001-07-15 09:00,15.1,1.4,1.4,2957,285.59
2001-07-15 10:00,15.3,1.0,1.0,2956,293.99
2001-07-15 11:00,15.7,0.8,0.8,2957,309.09
2001-07-15 12:00,15.1,2.5,2.5,2957,323.09
2001-07-15 13:00,15.7,1.0,1.0,2957,295.69
2001-07-15 14:00,17.4,0.4,0.4,2957,297.09
2001-07-15 15:00,20.1,0.4,0.4,2957,128.99
2001-07-15 16:00,19.7,1.4,1.4,2957,142.09
2001-07-15 17:00,19.5,2.0,2.0,2957,182.99
2001-07-15 18:00,17.5,2.5,2.5,2956,183.19
2001-07-15 19:00,17.3,3.3,3.3,2957,182.09
2001-07-15 20:00,17.4,1.6,1.6,2956,164.79
2001-07-15 21:00,17.5,2.0,2.0,2956,229.89
2001-07-15 22:00,17.5,3.3,3.3,2956,217.49
2001-07-15 23:00,17.7,2.7,2.7,2956,235.59
2001-07-16 00:00,17.7,2.2,2.2,2956,223.09
2001-07-16 01:00,16.8,2.0,2.0, 731,231.59
2001-07-16 02:00,18.1,1.4,1.4,2957,301.09
2001-07-16 03:00,18.1,0.8,0.8,2956,300.09
2001-07-16 04:00,17.1,,,2956,
2001-07-16 05:00,16.7,2.4,2.4,1070,340.99
2001-07-16 06:00,17.0,1.6,1.6,2164,353.42
2001-07-16 07:00,16.6,1.0,1.0,1501,301.69
2001-07-16 08:00,16.6,1.8,1.8,2339,357.62
2001-07-16 09:00,16.7,2.2,2.2,2376,320.89
2001-07-16 10:00,16.5,1.4,1.4,2478,330.39
2001-07-16 11:00,16.9,0.6,0.6,2956,321.89
2001-07-16 12:00,17.9,0.6,1.2,2956,272.59
2001-07-16 13:00,18.6,0.1,0.6,2957,26.55
2001-07-16 14:00,20.4,1.0,1.6,2951,89.99
2001-07-16 15:00,18.0,2.0,2.5,2957,158.09
2001-07-16 16:00,18.2,2.4,2.9,2956,160.39
2001-07-16 17:00,18.0,2.4,2.9,2957,158.69
2001-07-16 18:00,18.1,3.2,3.9,2957,169.99
2001-07-16 19:00,18.1,2.0,2.7,2957,162.19
2001-07-16 20:00,18.1,4.3,5.3,2957,196.19
2001-07-16 21:00,17.9,2.8,3.5,2956,195.49
2001-07-16 22:00,18.0,3.2,4.1,2957,186.29
2001-07-16 23:00,18.5,4.5,5.5,2956,194.79
2001-07-17 00:00,17.9,2.6,3.7,2956,175.09
2001-07-17 01:00,18.8,3.7,9.4,2956,302.99
2001-07-17 02:00,18.2,1.5,3.1,2956,254.79
2001-07-17 03:00,18.2,0.9,1.2,2956,195.49
2001-07-17 04:00,17.7,1.7,2.2,2956,103.19
2001-07-17 05:00,17.6,1.4,2.0,2956,114.09
2001-07-17 06:00,17.9,1.2,2.0,2956,118.79
2001-07-17 07:00,17.3,2.2,2.7,2956,21.88
2001-07-17 08:00,17.2,1.2,1.8,2956,34.02
2001-07-17 09:00,17.1,1.0,1.4,2956,23.13
2001-07-17 10:00,16.8,2.9,3.7,2956,325.89
2001-07-17 11:00,16.7,2.2,2.9,2956,312.29
2001-07-17 12:00,16.8,3.3,4.1,2907,25.09
2001-07-17 13:00,17.1,2.3,2.9,2390,11.85
2001-07-17 14:00,17.2,3.1,3.7,2781,30.80
2001-07-17 15:00,17.3,3.7,4.3,2873,37.18
2001-07-17 16:00,17.3,1.8,2.5,2692,22.94
2001-07-17 17:00,16.9,2.5,3.3,2956,10.40
2001-07-17 18:00,17.2,2.1,2.7,2041,51.84
2001-07-17 19:00,17.3,2.9,3.7,2700,53.60
2001-07-17 20:00,17.3,1.7,2.2,2957,78.29
2001-07-17 21:00,17.5,0.8,1.6,2957,141.39
2001-07-17 22:00,17.3,1.5,2.2,2957,173.09
2001-07-17 23:00,16.9,1.3,2.0,2956,142.39
2001-07-18 00:00,16.7,1.7,2.7,2956,183.49
2001-07-18 01:00,16.7,0.8,1.6,2956,155.29
2001-07-18 02:00,16.7,2.5,3.1,2956,199.79
2001-07-18 03:00,16.6,0.8,1.4,2649,39.82
2001-07-18 04:00,16.7,0.8,1.4,2951,169.79
2001-07-18 05:00,16.6,0.3,0.8,2956,207.79
2001-07-18 06:00,16.5,1.2,1.8,2956,246.29
2001-07-18 07:00,15.6,1.4,2.2,2956,330.49
2001-07-18 08:00,16.0,1.2,1.8,2956,355.93
2001-07-18 09:00,16.5,1.3,2.5, 311,38.98
2001-07-18 10:00,16.5,0.1,0.6,2938,
2001-07-18 11:00,16.3,1.4,2.2,2956,322.49
2001-07-18 12:00,15.8,2.7,3.3,2956,5.01
2001-07-18 13:00,16.0,1.3,2.0,2895,358.36
2001-07-18 14:00,16.1,1.3,1.8,2030,40.39
2001-07-18 15:00,16.2,1.1,1.6,2078,21.18
2001-07-18 16:00,16.6,0.9,1.6,2688,33.92
2001-07-18 17:00,17.0,1.7,2.2,1753,87.99
2001-07-18 18:00,17.2,1.4,2.0,2938,103.39
2001-07-18 19:00,17.4,2.6,3.1,2909,169.39
2001-07-18 20:00,17.3,3.3,3.9,2903,176.19
2001-07-18 21:00,17.4,2.7,3.3,2934,170.89
2001-07-18 22:00,17.7,1.7,2.2,2920,218.19
2001-07-18 23:00,17.4,1.6,2.2,2912,202.29
2001-07-19 00:00,17.1,1.2,1.6,2947,200.69
2001-07-19 01:00,17.0,1.4,2.2,2912,218.29
2001-07-19 02:00,17.0,0.7,1.0,1998,283.59
2001-07-19 03:00,16.7,0.1,0.6,2870,308.69
2001-07-19 04:00,16.6,0.5,1.2,2791,292.99
2001-07-19 05:00,16.5,0.9,1.4,2708,35.40
2001-07-19 06:00,16.6,1.3,2.0,2582,6.51
2001-07-19 07:00,16.6,1.5,2.0,2575,352.80
2001-07-19 08:00,16.7,2.5,3.1,2570,1.18
2001-07-19 09:00,16.6,3.0,3.5,2652,5.20
2001-07-19 10:00,16.6,3.3,4.1,2870,18.46
2001-07-19 11:00,16.1,3.5,4.5,2559,17.37
2001-07-19 12:00,15.5,3.8,4.9,2856,39.42
2001-07-19 13:00,15.7,4.4,5.7,1171,33.58
2001-07-19 14:00,15.6,4.3,5.5, 215,23.65
2001-07-19 15:00,15.5,4.3,5.7,1269,42.26
2001-07-19 16:00,15.9,3.9,5.5, 285,59.79
2001-07-19 17:00,16.6,3.5,5.3, 997,71.69
2001-07-19 18:00,16.9,2.8,3.9,2493,90.39
2001-07-19 19:00,17.0,1.8,2.4,2883,86.79
2001-07-19 20:00,17.3,1.2,1.8,2944,103.29
2001-07-19 21:00,18.0,0.1,0.4,2828,
2001-07-19 22:00,18.0,1.0,1.4,2945,245.99
2001-07-19 23:00,18.7,1.1,1.6,2956,249.09
2001-07-20 00:00,18.3,0.2,0.8,2956,233.89
2001-07-20 01:00,16.9,1.5,1.8,2954,226.09
2001-07-20 02:00,17.1,1.8,2.4,2926,256.49
2001-07-20 03:00,17.5,2.1,2.9,2692,264.29
2001-07-20 04:00,17.4,2.3,2.9,2953,274.19
2001-07-20 05:00,17.4,1.7,2.5,2956,259.99
2001-07-20 06:00,17.4,2.2,3.1,2956,305.49
2001-07-20 07:00,17.4,1.1,1.6,2956,255.49
2001-07-20 08:00,17.1,1.3,1.8,2956,252.79
2001-07-20 09:00,17.2,1.0,1.4,2956,245.29
2001-07-20 10:00,17.8,1.2,1.8,2956,214.59
2001-07-20 11:00,17.7,2.1,2.7,2956,205.09
2001-07-20 12:00,17.0,2.4,2.9,2957,236.99
2001-07-20 13:00,17.3,1.9,2.5,2957,280.69
2001-07-20 14:00,18.1,2.1,2.5,2957,303.29
2001-07-20 15:00,19.0,0.8,1.2,2957,313.19
2001-07-20 16:00,20.4,0.9,1.4,2957,165.79
2001-07-20 17:00,21.7,1.4,2.2,2956,115.29
2001-07-20 18:00,20.8,3.7,4.7,2956,122.19
2001-07-20 19:00,20.6,2.9,3.5,2956,110.89
2001-07-20 20:00,20.8,3.1,4.1,2957,127.89
2001-07-20 21:00,19.6,2.0,2.5,2957,173.79
2001-07-20 22:00,19.6,2.7,3.5,2957,175.29
2001-07-20 23:00,19.2,2.8,3.5,2956,209.09
2001-07-21 00:00,18.8,3.2,3.9,2956,199.79
2001-07-21 01:00,18.6,3.3,4.1,2614,200.79
2001-07-21 02:00,18.5,3.8,4.7,2956,197.09
2001-07-21 03:00,18.3,3.5,4.7,2956,212.89
2001-07-21 04:00,18.1,2.8,3.7,2956,218.89
2001-07-21 05:00,18.5,2.6,3.3,2956,199.89
2001-07-21 06:00,18.1,1.9,2.5,2956,205.59
2001-07-21 07:00,18.3,1.9,2.7,2956,217.19
2001-07-21 08:00,18.2,1.6,2.0,2956,219.59
2001-07-21 09:00,18.1,1.6,2.2,2956,212.09
2001-07-21 10:00,18.4,1.7,2.2,2956,223.39
2001-07-21 11:00,18.8,2.5,3.1,2956,209.19
2001-07-21 12:00,18.5,3.2,3.9,2891,225.29
2001-07-21 13:00,18.4,3.2,3.7,1326,224.69
2001-07-21 14:00,18.6,2.2,2.9,2949,205.59
2001-07-21 15:00,18.3,2.9,3.5,2922,180.89
2001-07-21 16:00,18.8,4.1,4.9,2956,186.69
2001-07-21 17:00,19.5,3.4,4.3,2895,189.69
2001-07-21 18:00,20.1,4.5,5.5,2956,193.99
2001-07-21 19:00,20.4,5.3,6.7,2956,189.39
2001-07-21 20:00,20.4,5.4,7.2,2957,180.29
2001-07-21 21:00,20.5,6.1,7.8,2950,180.79
2001-07-21 22:00,20.5,6.4,8.4,2931,185.69
2001-07-21 23:00,20.5,7.2,9.2,2892,191.49
2001-07-22 00:00,20.3,7.4,9.2,2957,197.39
2001-07-22 01:00,20.0,6.2,7.4,2925,198.59
2001-07-22 02:00,20.1,6.9,8.6,2956,200.19
2001-07-22 03:00,19.8,6.0,7.6,2956,202.09
2001-07-22 04:00,19.4,6.0,7.8,2956,210.89
2001-07-22 05:00,19.0,5.5,7.1,2956,208.19
2001-07-22 06:00,18.9,6.1,8.0,2956,209.29
2001-07-22 07:00,18.7,5.0,6.1,2956,219.59
2001-07-22 08:00,18.6,3.6,5.1,2956,226.29
2001-07-22 09:00,18.4,4.7,6.1,2956,211.29
2001-07-22 10:00,18.4,4.8,6.1,2955,212.39
2001-07-22 11:00,18.2,4.9,6.1,2927,217.09
2001-07-22 12:00,18.3,4.6,6.5,2867,206.49
2001-07-22 13:00,18.5,5.2,6.7,2895,207.59
2001-07-22 14:00,18.9,5.5,6.9,2924,201.29
2001-07-22 15:00,19.7,5.2,6.5,2954,207.59
2001-07-22 16:00,20.1,5.6,6.9,2956,203.59
2001-07-22 17:00,20.5,5.3,6.5,2956,194.39
2001-07-22 18:00,20.8,6.1,7.6,2956,189.89
2001-07-22 19:00,20.7,7.4,9.8,2956,188.49
2001-07-22 20:00,20.7,7.6,9.6,2951,190.29
2001-07-22 21:00,20.4,7.1,9.4,2894,187.09
2001-07-22 22:00,20.1,7.0,8.8,2880,185.09
2001-07-22 23:00,19.9,6.8,8.4,2670,189.49
2001-07-23 00:00,19.9,6.6,8.6,2719,195.89
2001-07-23 01:00,20.2,7.3,9.4,2956,203.19
2001-07-23 02:00,20.0,8.3,10.8,2956,208.39
2001-07-23 03:00,19.4,7.3,9.0,2956,213.39
2001-07-23 04:00,18.7,6.1,8.0,2956,209.49
2001-07-23 05:00,18.4,5.3,6.7,2956,213.29
2001-07-23 06:00,18.5,6.1,8.0,2956,212.39
2001-07-23 07:00,18.1,5.2,6.7,2956,225.89
2001-07-23 08:00,17.7,5.2,6.7,2956,216.79
2001-07-23 09:00,17.5,5.5,6.9,2956,215.39
2001-07-23 10:00,17.1,5.4,6.9,2956,217.59
2001-07-23 11:00,17.3,4.5,5.9,2956,221.09
2001-07-23 12:00,17.5,4.7,5.9,2957,215.19
2001-07-23 13:00,17.3,4.4,5.9,2957,198.09
2001-07-23 14:00,17.7,5.1,6.9,2945,203.99
2001-07-23 15:00,18.2,5.1,6.3,2957,203.49
2001-07-23 16:00,19.0,5.7,7.4,2957,198.89
2001-07-23 17:00,18.8,4.6,5.9,2957,183.79
2001-07-23 18:00,19.1,5.1,6.3,2956,184.29
2001-07-23 19:00,19.5,5.6,6.9,2956,187.39
2001-07-23 20:00,19.5,5.2,6.5,2946,189.59
2001-07-23 21:00,19.3,5.0,6.5,2933,188.79
2001-07-23 22:00,18.9,4.9,6.5,2852,183.79
2001-07-23 23:00,18.8,4.8,5.9,2921,187.99
2001-07-24 00:00,18.8,4.9,6.3,2456,194.99
2001-07-24 01:00,18.5,4.7,5.7,2685,195.79
2001-07-24 02:00,19.1,5.4,6.7,2462,214.79
2001-07-24 03:00,18.5,5.2,6.5,2514,195.69
2001-07-24 04:00,18.5,5.5,6.7,2558,209.69
2001-07-24 05:00,18.6,5.9,7.1,2654,221.59
2001-07-24 06:00,18.4,6.3,7.6,2722,220.09
2001-07-24 07:00,17.3,4.4,5.3,2647,211.99
2001-07-24 08:00,17.3,5.1,6.3,2472,219.49
2001-07-24 09:00,17.0,3.9,4.9,2602,191.69
2001-07-24 10:00,17.5,6.4,8.4,2598,209.29
2001-07-24 11:00,17.5,6.1,7.8,2709,210.79
2001-07-24 12:00,17.6,5.8,7.2,2754,205.99
2001-07-24 13:00,18.2,5.9,8.2,2696,220.59
2001-07-24 14:00,17.5,5.4,6.7,2682,212.49
2001-07-24 15:00,19.7,6.7,8.0,2626,202.69
2001-07-24 16:00,18.8,5.5,7.6,2815,217.39
2001-07-24 17:00,18.6,5.9,7.2,2674,197.09
2001-07-24 18:00,18.7,5.3,6.7,2569,206.79
2001-07-24 19:00,19.6,5.6,7.1,2465,192.89
2001-07-24 20:00,19.2,5.9,7.8,2530,184.89
2001-07-24 21:00,19.2,5.1,7.2,2331,199.39
2001-07-24 22:00,19.8,6.7,8.6,2363,200.29
2001-07-24 23:00,19.1,6.3,8.2,2572,212.29
2001-07-25 00:00,19.6,7.6,9.8,2230,219.69
2001-07-25 01:00,19.3,6.6,8.2,2430,212.19
2001-07-25 02:00,18.6,4.2,5.7,2433,217.69
2001-07-25 03:00,19.0,6.8,8.6,2376,215.29
2001-07-25 04:00,18.9,6.4,7.8,2483,218.39
2001-07-25 05:00,18.4,6.1,7.4,2562,233.99
2001-07-25 06:00,17.6,5.3,7.2,2450,226.19
2001-07-25 07:00,16.9,2.8,3.7,2273,251.59
2001-07-25 08:00,17.9,5.8,6.9,2351,226.59
2001-07-25 09:00,17.8,5.5,6.7,2301,241.59
2001-07-25 10:00,16.3,3.2,4.1,2236,236.29
2001-07-25 11:00,15.8,3.0,3.7,1899,226.69
2001-07-25 12:00,18.4,4.2,5.1,1612,247.49
2001-07-25 13:00,17.8,4.2,5.3,2054,245.09
2001-07-25 14:00,19.5,3.0,4.1,2509,283.29
2001-07-25 15:00,20.5,4.8,8.2,2956,273.79
2001-07-25 16:00,21.1,2.5,3.5,2957,274.39
2001-07-25 17:00,20.6,4.1,5.1,2957,263.69
2001-07-25 18:00,21.7,3.7,5.1,2957,271.99
2001-07-25 19:00,21.7,1.0,2.5,2957,234.49
2001-07-25 20:00,20.1,2.2,2.9,2957,161.29
2001-07-25 21:00,20.9,1.9,2.7,2957,187.69
2001-07-25 22:00,22.9,3.6,4.5,2957,286.49
2001-07-25 23:00,23.8,2.5,3.3,2957,322.49
2001-07-26 00:00,23.8,1.9,2.5,2956,318.09
2001-07-26 01:00,20.5,2.3,3.3,2956,44.79
2001-07-26 02:00,19.7,3.3,4.5,2956,32.03
2001-07-26 03:00,18.0,2.0,2.7,2956,4.15
2001-07-26 04:00,18.2,1.9,4.9,2956,169.79
2001-07-26 05:00,17.2,1.1,1.8,2956,291.29
2001-07-26 06:00,17.8,0.9,1.6,2956,307.79
2001-07-26 07:00,17.4,1.7,2.4,2956,2.27
2001-07-26 08:00,17.5,2.1,2.7,2956,15.35
2001-07-26 09:00,17.3,2.8,3.5,2956,355.55
2001-07-26 10:00,17.3,4.7,5.9,2904,355.93
2001-07-26 11:00,16.7,5.8,7.4,2756,15.75
2001-07-26 12:00,15.5,9.0,11.4,2659,33.94
2001-07-26 13:00,14.4,9.7,12.0,2307,33.98
2001-07-26 14:00,13.9,7.7,9.8,2838,22.07
2001-07-26 15:00,13.7,6.9,8.8,2596,40.37
2001-07-26 16:00,13.9,3.0,3.9,2654,53.15
2001-07-26 17:00,14.4,1.7,2.7,2957,22.27
2001-07-26 18:00,14.8,0.5,1.2,2957,30.34
2001-07-26 19:00,15.3,0.7,1.2,2957,278.99
2001-07-26 20:00,16.1,1.0,1.8,2957,132.39
2001-07-26 21:00,16.4,2.1,2.5,2955,145.89
2001-07-26 22:00,15.8,2.6,3.1,2952,193.09
2001-07-26 23:00,15.6,2.6,3.1,2635,213.39
2001-07-27 00:00,14.0,1.8,2.5,1383,247.99
2001-07-27 01:00,14.6,3.6,4.7,2749,265.79
2001-07-27 02:00,15.3,3.9,4.9,2957,319.39
2001-07-27 03:00,14.6,3.7,5.3,2957,321.39
2001-07-27 04:00,14.5,3.4,3.9,2957,352.94
2001-07-27 05:00,14.6,4.2,5.9,2957,356.85
2001-07-27 06:00,14.2,4.6,6.1,2957,350.59
2001-07-27 07:00,14.5,6.5,9.6,2957,353.53
2001-07-27 08:00,14.3,7.2,9.2,2957,346.16
2001-07-27 09:00,13.9,6.9,9.0,2957,341.09
2001-07-27 10:00,13.8,4.7,5.9,2957,328.99
2001-07-27 11:00,14.1,5.5,7.2,2787,328.29
2001-07-27 12:00,14.3,5.9,7.6,2247,337.69
2001-07-27 13:00,15.0,4.8,6.1,2590,327.19
2001-07-27 14:00,15.5,5.1,6.9,2957,336.29
2001-07-27 15:00,16.0,4.6,6.9,2957,345.34
2001-07-27 16:00,16.1,2.7,3.9,2957,337.09
2001-07-27 17:00,16.6,1.1,1.8,2957,113.39
2001-07-27 18:00,16.9,1.1,1.6,2957,149.49
2001-07-27 19:00,16.6,2.2,2.9,2957,162.49
2001-07-27 20:00,15.9,3.4,4.3,2957,199.39
2001-07-27 21:00,15.8,3.8,4.7,2956,199.79
2001-07-27 22:00,15.8,3.5,4.3,2675,209.49
2001-07-27 23:00,15.4,4.2,5.1, 660,237.59
2001-07-28 00:00,15.2,3.9,4.9,2575,229.19
2001-07-28 01:00,15.0,2.6,3.3,1750,243.29
2001-07-28 02:00,15.0,3.3,3.9,2957,257.99
2001-07-28 03:00,14.9,2.9,4.5,2957,273.09
2001-07-28 04:00,14.9,1.7,2.2,2957,289.39
2001-07-28 05:00,14.8,1.4,2.0,2957,316.89
2001-07-28 06:00,14.9,3.1,3.7,2957,337.29
2001-07-28 07:00,14.8,3.0,3.9,2957,336.99
2001-07-28 08:00,14.4,4.4,5.5,2957,337.09
2001-07-28 09:00,14.3,4.6,6.1,2957,339.19
2001-07-28 10:00,14.1,4.1,5.1,2957,344.49
2001-07-28 11:00,14.2,4.2,5.3,2670,336.59
2001-07-28 12:00,14.3,4.3,5.5,2958,353.09
2001-07-28 13:00,14.6,2.5,3.1,2958,324.99
2001-07-28 14:00,15.6,0.2,0.8,2957,285.79
2001-07-28 15:00,17.6,0.1,1.2,2957,
2001-07-28 16:00,16.1,2.2,2.7,2957,166.49
2001-07-28 17:00,16.2,2.5,3.1,2957,168.99
2001-07-28 18:00,16.1,3.8,4.5,2957,169.19
2001-07-28 19:00,16.2,4.2,4.9,2956,169.49
2001-07-28 20:00,16.1,4.6,5.5,2957,180.59
2001-07-28 21:00,16.0,5.2,6.5,2946,188.49
2001-07-28 22:00,15.9,4.9,6.1,2913,189.49
2001-07-28 23:00,15.6,4.6,5.9,2842,193.49
2001-07-29 00:00,15.4,4.1,5.1,2844,202.19
2001-07-29 01:00,15.7,4.4,5.9,2957,203.49
2001-07-29 02:00,15.5,4.4,5.7,2957,215.69
2001-07-29 03:00,15.2,3.2,4.1,2957,223.59
2001-07-29 04:00,15.2,2.8,3.7,2525,227.79
2001-07-29 05:00,15.2,2.2,2.7,2895,228.59
2001-07-29 06:00,15.2,1.1,1.8,2957,206.59
2001-07-29 07:00,14.9,1.2,1.6,2957,181.29
2001-07-29 08:00,14.9,1.0,1.4,2957,186.89
2001-07-29 09:00,14.8,1.6,2.2,2957,198.29
2001-07-29 10:00,15.4,0.9,1.4,2957,205.09
2001-07-29 11:00,15.2,0.9,1.6,2957,188.09
2001-07-29 12:00,14.8,2.4,2.9,2957,219.79
2001-07-29 13:00,14.9,2.4,2.9,2957,235.39
2001-07-29 14:00,16.0,0.4,0.8,2956,234.99
2001-07-29 15:00,16.9,0.8,1.4,2957,113.49
2001-07-29 16:00,16.5,2.7,3.5,2957,172.59
2001-07-29 17:00,16.4,3.7,4.7,2957,170.79
2001-07-29 18:00,16.6,4.7,5.9,2957,168.29
2001-07-29 19:00,16.8,4.9,6.1,2922,171.69
2001-07-29 20:00,16.8,4.8,5.7,2957,168.99
2001-07-29 21:00,17.0,4.8,5.9,2957,169.99
2001-07-29 22:00,16.9,4.7,5.9,2807,169.89
2001-07-29 23:00,16.7,3.9,5.3,2956,168.99
2001-07-30 00:00,16.2,3.0,3.7,2951,196.29
2001-07-30 01:00,15.8,1.7,2.4,2957,225.99
2001-07-30 02:00,15.6,1.3,1.8,2954,171.99
2001-07-30 03:00,15.8,1.4,2.0,2957,167.29
2001-07-30 04:00,16.3,1.4,2.4,2957,243.39
2001-07-30 05:00,15.9,0.6,1.0,2957,230.39
2001-07-30 06:00,15.6,0.8,1.2,2957,173.79
2001-07-30 07:00,15.5,1.2,1.8,2957,189.09
2001-07-30 08:00,15.5,1.8,2.4,2957,177.99
2001-07-30 09:00,15.5,1.5,1.8,2957,196.79
2001-07-30 10:00,15.7,2.2,2.9,2954,206.09
2001-07-30 11:00,16.0,1.3,2.0,2953,235.99
2001-07-30 12:00,15.7,2.1,2.5,2953,203.49
2001-07-30 13:00,16.0,1.2,1.8,2952,11.16
2001-07-30 14:00,16.2,2.0,2.7,2943,186.99
2001-07-30 15:00,16.9,1.1,2.7,2945,199.29
2001-07-30 16:00,16.8,2.1,2.7,2947,189.99
2001-07-30 17:00,17.0,2.6,3.3,2957,180.99
2001-07-30 18:00,17.4,2.0,2.5,2957,187.19
2001-07-30 19:00,17.7,1.4,1.8,2957,161.49
2001-07-30 20:00,17.9,1.6,2.0,2957,137.39
2001-07-30 21:00,18.1,1.7,2.4,2957,149.49
2001-07-30 22:00,18.0,1.9,2.5,2957,153.29
2001-07-30 23:00,17.9,0.9,1.6,2702,161.29
2001-07-31 00:00,17.4,0.6,1.0,2956,161.49
2001-07-31 01:00,16.9,1.0,1.4,2956,169.19
2001-07-31 02:00,16.7,0.1,0.6,2956,343.39
2001-07-31 03:00,16.4,0.3,0.8,2956,274.39
2001-07-31 04:00,16.3,1.5,2.2,2957,333.29
2001-07-31 05:00,16.1,2.8,3.7,2957,351.33
2001-07-31 06:00,15.4,2.7,3.3,2957,328.49
2001-07-31 07:00,15.4,2.4,2.9,2957,321.99
2001-07-31 08:00,15.4,1.7,2.7,2957,304.19
2001-07-31 09:00,14.9,0.7,1.2,2957,325.49
2001-07-31 10:00,15.1,1.4,2.2,2957,294.99
2001-07-31 11:00,15.4,3.4,4.1,2958,330.69
2001-07-31 12:00,15.4,3.0,3.7,2957,308.19
2001-07-31 13:00,15.9,2.2,2.7,2957,341.69
2001-07-31 14:00,17.1,0.4,0.8,2957,2.43
2001-07-31 15:00,18.0,0.9,1.6,2957,280.99
2001-07-31 16:00,17.9,2.3,3.9,2957,177.09
2001-07-31 17:00,17.6,2.3,3.1,2957,187.19
2001-07-31 18:00,18.2,2.8,3.7,2957,196.69
2001-07-31 19:00,18.4,3.1,4.1,2957,188.99
2001-07-31 20:00,18.4,2.7,3.3,2957,200.69
2001-07-31 21:00,18.8,2.5,3.3,2913,195.29
2001-07-31 22:00,19.9,2.9,3.7,2957,245.09
2001-07-31 23:00,19.6,5.6,7.6,2956,301.49
2001-08-01 00:00,19.2,3.0,3.9,2956,282.19
2001-08-01 01:00,18.5,2.5,3.3,2956,292.39
2001-08-01 02:00,18.0,2.1,3.3,2930,304.69
2001-08-01 03:00,18.1,2.5,3.7,2956,310.49
2001-08-01 04:00,18.2,3.4,4.9,2956,317.49
2001-08-01 05:00,17.6,1.5,2.4,2957,322.49
2001-08-01 06:00,17.4,0.7,1.6,2957,286.99
2001-08-01 07:00,17.3,1.8,2.9,2957,309.49
2001-08-01 08:00,17.3,2.4,3.9,2808,322.79
2001-08-01 09:00,17.1,1.5,2.7,2957,346.21
2001-08-01 10:00,17.3,2.4,3.9,2536,348.38
2001-08-01 11:00,17.8,1.7,2.4,2691,31.01
2001-08-01 12:00,17.4,2.9,3.9,2898,15.01
2001-08-01 13:00,17.9,2.4,3.1,2946,19.74
2001-08-01 14:00,18.1,2.4,3.3,2957,14.25
2001-08-01 15:00,18.1,2.0,2.9,2957,62.59
2001-08-01 16:00,18.4,3.1,4.1,2957,37.89
2001-08-01 17:00,18.2,3.7,4.7,2955,65.79
2001-08-01 18:00,18.4,4.0,5.1,2956,96.59
2001-08-01 19:00,18.5,3.0,4.1,2944,124.59
2001-08-01 20:00,18.7,2.2,3.1,2950,148.29